User: anonymous   Login
Location: Aufkirchen
(47.9603°N, 11.3653°E)
Time: 23:25:46
(UTC+01:00)
Language:

A-11 Canister half - Orbit

View from above orbital plane
View from above orbital plane
View from above satellite
View from above satellite

Ground track
Ground track

The orbit data is extracted from the following two-line orbital elements,

1    51U 60009C   20340.50095455 -.00000110  00000-0 -25215-3 0  9995
2    51  47.2098 178.2414 0105136 312.7713  46.4269 12.18272818684936
Epoch (UTC): 05 December 2020 12:01:22
Eccentricity: 0.0105136
inclination: 47.2098°
perigee height: 1516 km
apogee height: 1684 km
right ascension of ascending node: 178.2414°
argument of perigee: 312.7713°
revolutions per day: 12.18272818
mean anomaly at epoch: 46.4269°
orbit number at epoch: 68493

The dashed part of the orbit path shows where the satellite is in the earth's shadow,  

DLR